Weather Roundup
Issued by NWS Springfield, MO

Home | Current Version | Previous Version | Text Only | Print | Product List | Glossary On
Versions: 1 2 3 4 5 6 7 8 9 10 11 12 13 14 15 16 17 18 19 20 21 22 23 24 25 26 27 28 29 30 31 32 33 34 35 36 37 38 39 40 41 42 43 44 45 46 47 48 49 50
000
NZUS99 KSGF 310859
HRRSGF

HOURLY WEATHER
NATIONAL WEATHER SERVICE SPRINGFIELD MO
400 AM CDT SUN AUG 31 2014

......SGF CWA......

CITY           SKY/WX    TMP DP  RH WIND       PRES   REMARKS
SPRINGFIELD    CLEAR     70  68  93 S9        29.95S
JOPLIN         CLEAR     73  69  87 S9        29.93S
WEST PLAINS    CLOUDY    72  68  87 SW7       30.00S
ROLLA          PTCLDY    70  69  97 S10       29.95R
OSAGE BEACH    CLEAR     70  64  83 S3        29.94S

......SURROUNDING SGF CWA......

CITY           SKY/WX    TMP DP  RH WIND       PRES   REMARKS
CHANUTE        CLEAR     72  69  90 S9        29.90F
PARSONS        CLEAR     72  68  87 S5        29.91F
COFFEYVILLE    CLEAR     71  69  93 S5        29.90S
EMPORIA        CLEAR     69  64  84 S9        29.88S
HARRISON AR    CLEAR     70  69  97 S3        29.98S
NEAR YELLVILLE CLEAR     70  66  88 CALM      29.96S

......KANSAS AND MISSOURI......

CITY           SKY/WX    TMP DP  RH WIND       PRES   REMARKS
KANSAS CTY INT CLEAR     70  67  90 S9        29.88F
DOWNTOWN KC    CLEAR     74  67  78 S6        29.88S
COLUMBIA       CLEAR     67  66  97 S7        29.93S
SEDALIA        CLEAR     68  65  90 S7        29.93R
ST JOSEPH      CLEAR     69  66  90 SE5       29.87F
ST LOUIS       PTCLDY    74  71  91 S5        29.94
SPIRIT OF STL  CLEAR     71  69  93 CALM      29.93S
KIRKSVILLE     CLEAR     64  63  96 SE3       29.92S FOG
WICHITA        CLEAR     72  67  84 SE9       29.86F
TOPEKA         CLEAR     70  66  87 CALM      29.86F
OLATHE         CLEAR     69  67  93 S6        29.89S

......TENNESSEE......

CITY           SKY/WX    TMP DP  RH WIND       PRES   REMARKS
MEMPHIS        CLOUDY    75  72  90 S8        29.97S
NASHVILLE      RAIN      71  70  96 SE6       30.07S FOG

......ARKANSAS.......

CITY           SKY/WX    TMP DP  RH WIND       PRES   REMARKS
FAYETTEVILLE   CLEAR     70  68  93 CALM      29.97S
FT SMITH       CLEAR     73  70  90 E3        29.94S
LITTLE ROCK    CLOUDY    74  70  87 SW5       29.97R

......OKLAHOMA.......

CITY           SKY/WX    TMP DP  RH WIND       PRES   REMARKS
TULSA          CLEAR     76  69  79 S12       29.89S
PONCA CITY     CLEAR     76  67  73 S8        29.88S
MCALESTER      PTCLDY    75  71  87 VRB3      29.93S
OKLAHOMA CITY  CLEAR     72  67  84 S6        29.91S

......IOWA............

CITY           SKY/WX    TMP DP  RH WIND       PRES   REMARKS
DES MOINES     PTCLDY    69  64  84 SE7       29.87S
QUAD CITIES    FOG       62  61  96 CALM      29.91R VSB 1/2

......ILLINOIS........

CITY           SKY/WX    TMP DP  RH WIND       PRES   REMARKS
QUINCY         CLEAR     70  67  90 S7        29.92R
CHICAGO        CLOUDY    71  66  84 S5        29.92R



USA.gov is the U.S. government's official web portal to all federal, state and local government web resources and services.